This is the latest recevied weather packets stored in our database for station/object K9NZF-2. If no packets are shown the sender has not sent any weather packets the latest 1 day(s).
| Time | Temp. | Humidity | Pressure | Rain* | Wind** | Luminosity | Snow |
|---|---|---|---|---|---|---|---|
| 1778040859 | 6.67° C | 94% | 971.4 hPa | 2.54 mm | 1.34 m/s, 75° | - | - |
| 1778040798 | 6.67° C | 94% | 971.4 hPa | 2.54 mm | 1.34 m/s, 53° | - | - |
| 1778040733 | 6.67° C | 94% | 971.4 hPa | 2.54 mm | 1.34 m/s, 68° | - | - |
| 1778040670 | 6.67° C | 94% | 971.4 hPa | 2.29 mm | 1.34 m/s, 336° | - | - |
| 1778040610 | 6.67° C | 94% | 971.4 hPa | 2.29 mm | 1.34 m/s, 75° | - | - |
| 1778040552 | 6.67° C | 94% | 971.3 hPa | 2.29 mm | 1.34 m/s, 36° | - | - |
| 1778040493 | 6.67° C | 94% | 971.3 hPa | 2.29 mm | 1.34 m/s, 333° | - | - |
| 1778040428 | 6.67° C | 94% | 971.3 hPa | 2.29 mm | 1.34 m/s, 3° | - | - |
| 1778040366 | 6.67° C | 94% | 971.4 hPa | 2.03 mm | 1.34 m/s, 72° | - | - |
| 1778040302 | 6.67° C | 94% | 971.5 hPa | 2.29 mm | 1.34 m/s, 82° | - | - |
| 1778040246 | 6.67° C | 94% | 971.5 hPa | 2.29 mm | 1.34 m/s, 19° | - | - |
| 1778040185 | 6.67° C | 94% | 971.5 hPa | 2.03 mm | 0.89 m/s, 23° | - | - |
| 1778040124 | 6.67° C | 94% | 971.4 hPa | 2.03 mm | 0.89 m/s, 20° | - | - |
| 1778040063 | 6.67° C | 94% | 971.4 hPa | 2.03 mm | 0.89 m/s, 352° | - | - |
| 1778040002 | 6.67° C | 94% | 971.3 hPa | 2.03 mm | 1.34 m/s, 23° | - | - |
| 1778039944 | 6.67° C | 94% | 971.3 hPa | 2.03 mm | 1.34 m/s, 26° | - | - |
| 1778039884 | 6.67° C | 94% | 971.3 hPa | 1.78 mm | 1.34 m/s, 12° | - | - |
| 1778039822 | 6.67° C | 94% | 971.3 hPa | 1.78 mm | 1.34 m/s, 34° | - | - |
| 1778039764 | 6.67° C | 94% | 971.4 hPa | 1.52 mm | 1.34 m/s, 347° | - | - |
| 1778039703 | 6.67° C | 94% | 971.4 hPa | 1.78 mm | 1.34 m/s, 18° | - | - |
| 1778039644 | 6.67° C | 94% | 971.6 hPa | 1.78 mm | 1.34 m/s, 340° | - | - |
| 1778039583 | 6.67° C | 94% | 971.6 hPa | 1.52 mm | 1.79 m/s, 347° | - | - |
| 1778039525 | 6.67° C | 94% | 971.6 hPa | 1.52 mm | 1.79 m/s, 23° | - | - |
| 1778039464 | 6.67° C | 94% | 971.6 hPa | 1.52 mm | 1.79 m/s, 32° | - | - |
| 1778039402 | 6.67° C | 94% | 971.6 hPa | 1.52 mm | 1.79 m/s, 347° | - | - |
* Rain latest hour (hover to see other rain measurements)
** Current wind speed in m/s (hover to see current wind gust speed)